EW5812 Weather Reports


Display with metric or nautical units.
time (UTC)temp
F
wind
direction
speed
MPH
gust
MPH
rain 1hr
in
rain 24hr
in
rain mn
in
humidity
%
barometer
mb
20260505124539 44 32 2.0 4.0 0.00 0.00 0.00 50 1003.5
20260505123024 44 32 4.0 6.0 0.00 0.00 0.00 49 1003.1
20260505121532 46 47 0.0 1.0 0.00 0.00 0.00 46 1003.1
20260505120023 46 47 0.0 6.0 0.00 0.00 0.00 45 1003.3
20260505114518 48 231 0.0 7.0 0.00 0.00 0.00 44 1003.5
20260505113018 47 337 0.0 6.0 0.00 0.00 0.00 44 1003.3
20260505111517 47 359 3.0 5.0 0.00 0.00 0.00 44 1003.2
20260505101508 49 213 5.0 8.0 0.00 0.00 0.00 40 1002.7
20260505100016 50 218 5.0 8.0 0.00 0.00 0.00 37 1002.9
20260505094507 51 258 7.0 12.0 0.00 0.00 0.00 35 1003.0
20260505093004 52 280 4.0 8.0 0.00 0.00 0.00 34 1003.0
20260505091506 51 305 0.0 3.0 0.00 0.00 0.00 34 1003.4
20260505090002 52 170 1.0 5.0 0.00 0.00 0.00 33 1003.6
20260505084500 52 97 1.0 4.0 0.00 0.00 0.00 34 1003.7
20260505083200 53 186 4.0 14.0 0.00 0.00 0.00 33 1004.0
20260505081600 53 244 10.0 18.0 0.00 0.00 0.00 32 1004.1
20260505080057 53 255 13.0 20.0 0.00 0.00 0.00 32 1003.8
20260505074555 53 249 15.0 19.0 0.00 0.00 0.00 32 1003.9
20260505073059 51 221 6.0 9.0 0.00 0.00 0.00 37 1003.8
20260505071549 51 137 3.0 6.0 0.00 0.00 0.00 38 1003.4
20260505070045 51 60 2.0 3.0 0.00 0.00 0.00 36 1003.1
20260505064543 52 206 0.0 3.0 0.00 0.00 0.00 34 1003.1
20260505063048 52 249 2.0 5.0 0.00 0.00 0.00 33 1002.9
20260505061541 52 193 1.0 3.0 0.00 0.00 0.00 33 1002.8
20260505060037 51 57 1.0 5.0 0.00 0.00 0.00 34 1002.7
20260505054549 51 31 4.0 5.0 0.00 0.00 0.00 33 1002.9
20260505053044 55 191 0.0 6.0 0.00 0.00 0.00 28 1002.9
20260505051543 56 225 4.0 6.0 0.00 0.00 0.00 28 1002.9
20260505041546 55 289 2.0 5.0 0.00 0.00 0.00 26 1003.3
20260505040039 56 15 3.0 4.0 0.00 0.00 0.00 26 1003.0
20260505034536 57 273 0.0 8.0 0.00 0.00 0.00 24 1003.1
20260505033032 57 274 3.0 9.0 0.00 0.00 0.00 24 1003.0
20260505031537 58 268 4.0 7.0 0.00 0.00 0.00 23 1002.6
20260505030038 58 303 5.0 7.0 0.00 0.00 0.00 23 1002.5
20260505024531 58 328 5.0 6.0 0.00 0.00 0.00 22 1002.3
20260505023032 58 322 7.0 9.0 0.00 0.00 0.00 23 1002.4
20260505021530 58 330 4.0 6.0 0.00 0.00 0.00 23 1002.2
20260505020043 59 303 5.0 14.0 0.00 0.00 0.00 22 1002.2
20260505014530 59 253 11.0 16.0 0.00 0.00 0.00 21 1002.1
20260505013029 60 266 8.0 16.0 0.00 0.00 0.00 20 1001.8
20260505011528 61 267 12.0 23.0 0.00 0.00 0.00 19 1001.9
20260505010034 62 273 15.0 25.0 0.00 0.00 0.00 19 1002.2
20260505004527 62 256 22.0 31.0 0.00 0.00 0.00 17 1001.9
20260505003029 63 236 22.0 30.0 0.00 0.00 0.00 17 1002.2
20260505001527 63 240 18.0 27.0 0.00 0.00 0.00 16 1002.2
20260505000029 63 226 18.0 29.0 0.00 0.00 0.00 16 1002.2
20260504234525 64 275 19.0 30.0 0.00 0.00 0.00 16 1002.0
20260504233026 64 239 23.0 30.0 0.00 0.00 0.00 16 1001.9
20260504231526 64 235 26.0 35.0 0.00 0.00 0.00 16 1001.9
20260504230024 65 240 21.0 32.0 0.00 0.00 0.00 16 1001.9
20260504224525 64 218 22.0 33.0 0.00 0.00 0.00 17 1001.6
20260504223023 65 243 23.0 31.0 0.00 0.00 0.00 17 1001.8
20260504221524 65 240 19.0 29.0 0.00 0.00 0.00 18 1001.8
20260504220020 65 205 8.0 31.0 0.00 0.00 0.00 19 1002.0
20260504214534 65 235 14.0 31.0 0.00 0.00 0.00 18 1002.2
20260504213016 64 249 18.0 32.0 0.00 0.00 0.00 20 1002.6
20260504211514 64 232 17.0 27.0 0.00 0.00 0.00 20 1002.7
20260504210018 64 246 15.0 28.0 0.00 0.00 0.00 21 1002.6
20260504204512 64 242 18.0 25.0 0.00 0.00 0.00 21 1003.1
20260504203008 64 237 19.0 26.0 0.00 0.00 0.00 24 1003.3
20260504201509 63 234 13.0 28.0 0.00 0.00 0.00 24 1003.3
20260504200013 63 214 17.0 31.0 0.00 0.00 0.00 25 1003.3
20260504194508 64 222 17.0 25.0 0.00 0.00 0.00 27 1003.6
20260504193002 62 250 11.0 19.0 0.00 0.00 0.00 28 1003.6
20260504191624 61 162 9.0 24.0 0.00 0.00 0.00 31 1003.8
20260504190059 62 243 21.0 28.0 0.00 0.00 0.00 29 1004.0
20260504184555 61 222 12.0 22.0 0.00 0.00 0.00 31 1003.9
20260504183053 61 218 7.0 21.0 0.00 0.00 0.00 31 1004.3
20260504181553 61 173 9.0 20.0 0.00 0.00 0.00 34 1004.7
20260504180049 60 168 7.0 19.0 0.00 0.00 0.00 35 1004.6
20260504174548 60 213 11.0 17.0 0.00 0.00 0.00 36 1004.8
20260504173043 59 245 16.0 22.0 0.00 0.00 0.00 37 1005.2
20260504171540 58 158 6.0 15.0 0.00 0.00 0.00 44 1005.4